Location: ???? ?????
(37.9138°N, 23.4966°E)
Time: 19:42:46
(UTC+00:00)

Daily predictions for brighter satellites

Satellite Brightness Start Highest point End
(mag) Time Altitude Azimuth Time Altitude Azimuth Time Altitude Azimuth
Meteor 2-4 Rocket 3.9 16:47:05 10° N 16:53:01 89° E 16:58:48 10° S
COSMO-SKYMED 1 3.7 16:53:14 10° N 16:57:26 51° WNW 17:01:38 10° SSW
NOSS 2-1 (E) 4.1 16:57:31 10° NNW 17:01:37 52° ENE 17:07:19 10° SE
NOSS 3-3 (C) 4.1 16:57:39 10° S 17:02:21 37° ESE 17:07:36 10° NE
Cosmos 2237 Rocket 2.3 16:59:00 10° S 17:04:25 52° ESE 17:09:52 10° NNE
Tsikada Rocket 4.2 16:58:09 10° N 17:04:29 86° W 17:10:52 10° S
Resurs 01 Rocket 3.4 17:02:29 10° E 17:04:45 14° ENE 17:07:00 10° NE
NOSS 2-1 (D) 3.9 17:03:30 10° NNW 17:07:37 62° ENE 17:13:25 10° SE
ISS -1.5 17:05:59 10° W 17:08:44 23° NNW 17:11:30 10° NNE
CZ-4 R/B 2.7 17:06:18 10° ESE 17:09:02 19° ENE 17:11:49 10° NNE
USA 276 3.4 17:07:17 10° NNW 17:09:40 23° NNE 17:11:42 12° E
Cosmos 1328 Rocket 3.6 17:08:24 10° N 17:12:39 57° E 17:16:52 10° SSE
Cosmos 1151 Rocket 4.2 17:09:44 10° NNW 17:13:47 46° W 17:17:49 10° SSW
CZ-4B R/B 3.8 17:09:28 10° SE 17:13:52 40° ENE 17:18:22 10° N
ATLAS CENTAUR R/B 1.0 17:10:33 10° SSW 17:14:02 85° WNW 17:17:41 10° NNE
NOSS 3-3 (A) 3.8 17:09:45 10° S 17:14:43 51° ESE 17:20:21 10° NE
BlueWalker 3 2.1 17:11:50 10° NW 17:15:33 71° SW 17:19:17 10° SE
Helios 1B rocket 2.6 17:15:11 10° S 17:19:00 69° WSW 17:22:51 10° NNW
SJ-6B 3.1 17:17:50 10° SE 17:21:10 37° ENE 17:24:31 10° N
DMSP B5D1-3 4.5 17:17:34 10° NNE 17:22:40 84° ESE 17:27:44 10° SSW
Sich 1 4.3 17:19:52 10° SE 17:22:51 19° E 17:25:53 10° NE
CZ-4B R/B 3.8 17:21:52 13° SE 17:24:43 28° ENE 17:28:11 10° N
SAR-Lupe-2 3.6 17:21:56 10° SSE 17:25:25 57° ENE 17:28:57 10° N
Meteor 1-4 Rocket 1.5 17:24:21 10° N 17:27:00 75° E 17:29:37 10° SSE
NOSS 0 Rocket 4.4 17:20:56 10° SSW 17:27:07 69° WNW 17:33:22 10° NNE
Landsat 7 4.5 17:23:08 10° S 17:27:44 57° W 17:32:22 10° NNW
Tiangong -0.5 17:28:12 10° SSW 17:30:24 18° SE 17:30:44 18° SE
Cosmos 1707 2.6 17:27:39 10° N 17:31:07 51° E 17:34:34 10° SSE
Cosmos 1943 Rocket 2.6 17:27:53 10° N 17:33:08 42° ENE 17:37:08 16° SE
BREEZE M DEB (TANK) 4.4 17:28:40 10° WSW 17:33:38 80° NNW 17:52:51 10° ENE
Cosmos 1980 3.8 17:28:45 10° SSW 17:34:25 80° WNW 17:40:08 10° NNE
Cosmos 1674 3.1 17:32:15 10° NNW 17:35:29 54° W 17:38:40 10° S
Cosmos 158 Rocket 3.7 17:31:14 10° S 17:36:02 66° ESE 17:40:52 10° NNE
ARGOS Delta rocket 4.0 17:31:56 10° SSE 17:36:49 52° ENE 17:41:28 10° N
Cosmos 1842 2.9 17:34:13 10° N 17:37:51 84° E 17:41:27 10° S
Iridium 4 Rocket 3.8 17:36:53 10° NNW 17:40:55 53° W 17:45:05 10° SSW
Cosmos 2208 Rocket 4.0 17:36:50 10° S 17:41:59 63° ESE 17:47:15 10° NNE
Meteor 1-11 Rocket 3.7 17:38:47 10° S 17:44:18 61° E 17:49:46 10° NNE
ADEOS 3.5 17:41:53 10° SSE 17:47:06 89° ENE 17:52:21 10° NNW
Resurs 1-3 3.7 17:45:03 10° S 17:49:21 74° W 17:53:42 10° NNW
USA 59 Rocket 1.0 17:45:54 10° NW 17:50:14 59° WSW 17:56:21 10° SSE
SPOT 1/Viking Rocket 3.5 17:45:20 10° SSE 17:50:30 87° WSW 17:55:42 10° NNW
Meteor 2-10 4.1 17:49:39 10° S 17:55:14 85° E 18:00:58 10° N
Helios 1A 3.4 17:53:45 10° N 17:57:45 62° WNW 18:01:45 10° SSW
Cosmos 1356 Rocket 3.6 17:54:22 10° NNW 17:58:32 70° W 18:02:37 10° S
Nadezhda 4 Rocket 4.0 17:53:53 10° N 18:00:08 64° E 18:05:56 12° SSE
GEOS 3 Rocket 4.3 17:59:16 28° E 18:01:03 37° NE 18:05:46 10° NNW
OAO 3 Rocket 3.4 17:57:46 10° WSW 18:02:23 51° S 18:03:41 39° ESE
Lacrosse 4 Rocket 4.4 18:01:26 10° WNW 18:03:22 13° WSW 18:05:19 10° SW
Cosmos 2026 Rocket 4.5 18:01:00 10° N 18:06:38 36° ENE 18:07:52 33° E
SL-16 R/B 2.3 18:01:31 10° S 18:06:57 50° ESE 18:12:24 10° NNE
Cosmos 1733 4.1 18:05:03 10° SSW 18:08:20 43° W 18:11:37 10° N
Cosmos 1515 Rocket 3.7 18:04:44 10° N 18:09:05 74° W 18:12:50 14° S
Cosmos 1092 Rocket 4.5 18:05:30 10° N 18:11:24 39° ENE 18:12:43 35° ESE
Cosmos 1315 Rocket 2.6 18:09:50 10° N 18:13:49 69° E 18:14:10 65° ESE
Cosmos 1536 4.4 18:10:27 10° SW 18:13:56 34° WNW 18:17:28 10° NNW
USA 186 1.8 18:14:51 73° NNW 18:14:51 73° NNW 18:17:49 10° NNW
Cosmos 1464 Rocket 4.5 18:11:54 10° SSW 18:18:07 63° W 18:24:28 10° N
Cosmos 1500 Rocket 3.5 18:14:59 10° S 18:19:22 84° W 18:23:43 10° N
Okean O Rocket 2.0 18:20:40 44° NE 18:20:40 44° NE 18:24:28 10° N
Cosmos 1634 Rocket 4.2 18:20:34 40° SE 18:22:07 47° E 18:28:08 10° NNE
MINOTAUR IV R/B 4.4 18:17:41 10° NNW 18:22:13 79° ENE 18:22:47 66° SE
ACS3 Solar Sail 2.0 18:19:59 37° SE 18:22:19 57° ENE 18:28:35 10° N
SPOT 5 4.3 18:25:05 21° NE 18:25:05 21° NE 18:27:10 10° NNE
Meteor 2-9 Rocket 4.4 18:19:14 10° SSW 18:24:31 66° W 18:29:56 10° N
Cosmos 2278 Rocket 3.2 18:21:27 10° NW 18:26:46 43° WSW 18:31:42 12° S
Cosmos 1743 Rocket 3.3 18:26:39 59° S 18:27:26 87° E 18:31:47 10° N
Aureole 3 Rocket 3.8 18:20:22 10° S 18:27:27 87° W 18:32:26 10° N
CZ-4B R/B 3.1 18:25:57 33° SSE 18:28:32 88° W 18:33:56 10° NNW
IKONOS-2 4.5 18:31:38 10° N 18:35:36 77° NW 18:35:36 77° NW
Cosmos 2150 Rocket 3.8 18:31:17 10° NNW 18:36:27 77° ENE 18:36:43 74° ESE
Cosmos 2298 Rocket 3.8 18:31:29 10° NNW 18:36:48 78° ENE 18:37:15 71° ESE
USA 32 3.9 18:34:41 10° N 18:39:57 86° E 18:40:36 69° SSE
Resurs 01 Rocket 2.3 18:39:18 36° SSW 18:40:41 51° W 18:45:01 10° NNW
CSL-04 Rocket 3.7 18:39:43 43° S 18:41:29 74° WSW 18:46:48 10° NNW
Cosmos 2034 Rocket 4.5 18:36:26 10° SSW 18:42:32 59° W 18:48:38 10° N
CZ-4 R/B 3.3 18:41:17 17° SW 18:43:21 26° W 18:46:39 10° NW
Cosmos 1125 Rocket 4.5 18:38:57 10° NNW 18:43:51 43° WSW 18:46:24 25° SSW
Cosmos 1607 4.4 18:37:27 10° SW 18:43:51 65° WNW 18:50:17 10° NNE
Cosmos 773 Rocket 4.5 18:40:59 10° SSW 18:46:10 60° WNW 18:51:25 10° N
Okean-O 4.1 18:50:35 28° N 18:50:35 28° N 18:52:50 10° N
Cosmos 1627 Rocket 4.3 18:42:31 10° N 18:48:47 80° E 18:49:35 68° SSE
Terra 4.0 18:57:48 16° NNE 18:57:48 16° NNE 18:58:56 10° N
Meteor 1-23 Rocket 4.4 18:50:31 10° NNW 18:56:09 69° W 18:57:13 56° SSW
Cosmos 2279 Rocket 4.5 19:01:05 47° NE 19:01:05 47° NE 19:05:33 10° NNE
Cosmos 2297 4.4 19:03:22 10° NNW 19:07:26 44° NNE 19:07:26 44° NNE
Cosmos 1943 Rocket 4.1 19:12:14 10° NW 19:16:31 23° WSW 19:18:41 19° SW
Cosmos 2369 Rocket 3.2 19:16:02 10° NNW 19:19:41 39° N 19:19:41 39° N
NOSS 3-4 (A) 4.0 19:27:58 10° NNW 19:34:11 67° N 19:34:11 67° N
NOSS 3-4 (C) 4.0 19:28:04 10° NNW 19:34:15 66° N 19:34:15 66° N
SL-16 R/B 4.3 19:46:56 10° WSW 19:51:19 23° NW 19:55:44 10° N
ACS3 Solar Sail 3.8 20:05:15 20° WSW 20:06:38 22° W 20:11:25 10° NW
